Date,TemperatureHighF,TemperatureAvgF,TemperatureLowF,DewpointHighF,DewpointAvgF,DewpointLowF,HumidityHigh,HumidityAvg,HumidityLow,PressureMaxIn,PressureMinIn,WindSpeedMaxMPH,WindSpeedAvgMPH,GustSpeedMaxMPH,PrecipitationSumIn
2013-1-1,29.3,18.9,11.1,18.0,11.4,8.5,90,74,45,30.15,30.00,9,0,10,0.00
2013-1-2,30.3,19.9,-1.6,18.2,9.3,-17.7,92,64,38,30.30,24.94,16,0,127,21.60
2013-1-3,34.1,21.4,11.3,10.0,5.7,0.7,74,53,24,30.30,28.98,11,0,12,2.06
2013-1-4,43.6,25.9,14.4,14.1,8.0,2.5,73,49,22,30.20,30.01,8,0,8,0.00
2013-1-5,37.1,24.6,15.7,17.0,13.6,9.5,78,64,38,30.29,30.06,15,1,15,0.00
2013-1-6,44.7,26.9,12.8,18.8,10.9,2.6,76,55,18,30.27,29.93,8,0,8,0.00
2013-1-7,47.2,33.5,24.2,18.4,14.2,9.0,68,48,22,30.02,29.81,10,0,11,0.00
2013-1-8,50.5,36.9,24.7,20.1,16.4,12.3,65,45,26,30.22,29.78,14,0,15,0.00
2013-1-9,54.8,30.8,22.0,22.5,18.5,-26.3,81,63,20,30.32,29.48,16,1,16,0.96
2013-1-10,41.5,33.8,24.3,23.3,18.9,13.1,74,55,37,30.00,28.10,16,1,16,0.00
2013-1-11,40.7,27.1,13.3,28.1,18.8,10.1,92,73,40,29.74,28.63,19,2,20,1.09
2013-1-12,16.6,9.4,4.5,11.1,5.4,1.1,92,84,68,29.98,29.74,14,1,15,2.30
2013-1-13,15.0,7.9,1.3,7.2,2.9,-1.9,87,80,66,30.09,29.95,10,0,10,0.01
2013-1-14,14.1,7.7,2.5,9.0,3.6,-1.0,90,83,72,30.12,30.00,10,0,10,0.18
2013-1-15,30.3,17.6,-0.6,17.3,7.0,-4.1,86,65,42,30.12,30.02,8,0,8,0.01
2013-1-16,47.2,32.6,21.1,23.5,19.2,14.3,78,59,35,30.38,30.12,10,0,10,5.98
2013-1-17,39.2,24.3,19.2,22.4,18.2,15.5,86,78,47,30.47,30.38,6,0,6,1.19
2013-1-18,54.2,43.5,30.5,9.6,6.0,-0.1,40,23,11,30.12,30.07,16,2,17,5.21
2013-1-19,55.2,38.1,25.4,13.5,7.2,-3.7,50,31,9,30.27,30.09,12,0,12,0.00
2013-1-20,45.7,31.6,21.7,18.9,14.1,10.4,78,51,24,30.27,30.12,17,0,18,0.01
2013-1-21,55.7,35.6,16.8,21.8,11.1,-4.6,87,47,10,30.23,30.06,18,1,18,0.00
2013-1-22,62.7,43.8,27.5,9.4,-2.0,-41.5,42,19,1,30.18,30.02,25,2,26,0.00
2013-1-23,56.1,41.1,32.3,16.7,8.4,-0.7,39,27,10,30.21,30.11,7,0,8,0.00
2013-1-24,66.2,47.7,29.8,26.6,18.4,7.0,56,34,10,30.15,29.94,25,2,25,0.00
2013-1-25,58.8,46.2,36.0,28.4,26.4,24.1,68,48,29,30.18,30.05,10,0,11,0.00
2013-1-31,48.2,40.9,29.0,25.4,21.8,15.6,74,48,27,30.13,30.05,21,1,21,0.00
2013-2-1,50.4,37.0,25.6,25.0,21.5,16.8,81,57,27,30.21,30.02,25,2,28,0.00
2013-2-2,58.1,38.7,25.7,23.8,18.2,1.3,81,50,11,30.34,30.20,24,1,24,0.00
2013-2-3,52.4,38.5,26.2,22.1,17.5,1.6,76,47,13,30.26,29.88,14,0,18,0.01
2013-2-4,54.9,39.7,27.1,17.8,13.2,3.1,60,38,14,29.99,29.84,22,0,22,0.00
2013-2-5,34.0,31.6,29.4,18.6,17.8,16.9,64,56,49,30.00,29.93,8,0,9,0.00
2013-2-8,51.2,51.1,51.1,20.3,20.3,20.1,29,29,29,29.72,29.71,0,0,0,0.00
2013-2-9,38.2,33.8,27.1,32.4,28.2,23.0,91,81,60,29.61,29.50,14,2,14,0.00
2013-2-10,36.4,28.6,23.1,23.0,16.7,9.5,90,64,34,30.04,29.56,20,1,20,0.00
2013-2-11,32.6,24.2,17.1,19.0,15.9,13.2,86,71,50,30.04,29.92,9,0,9,0.00
2013-2-12,40.8,27.4,15.8,15.1,6.9,-5.9,86,50,14,30.03,29.97,11,0,11,0.00
2013-2-13,46.4,32.4,21.8,14.5,11.2,7.9,62,43,24,30.02,29.90,27,1,28,0.00
2013-2-14,36.3,30.4,24.2,25.1,20.9,16.9,89,68,48,30.29,30.06,23,2,24,0.01
2013-2-15,39.4,27.5,16.7,22.4,17.0,12.5,86,67,34,30.30,30.21,21,1,21,0.00
2013-2-16,54.4,38.4,21.8,20.1,13.9,8.4,81,44,17,30.21,29.97,20,1,23,0.00
2013-2-17,59.9,41.4,27.0,20.2,3.6,-38.7,61,30,1,29.97,29.53,26,2,26,0.00
2013-2-18,41.0,32.8,23.5,22.7,11.5,-2.1,78,45,17,30.08,29.77,32,1,34,0.01
2013-2-19,41.4,24.2,18.2,14.8,9.3,6.1,66,54,30,30.07,29.76,11,0,12,0.01
2013-2-20,35.7,27.5,20.9,30.3,20.2,12.7,92,75,48,29.77,29.59,12,1,13,0.00
2013-2-21,30.6,22.1,16.7,22.8,18.2,14.3,92,85,69,29.87,29.66,11,0,12,6.16
2013-2-22,36.6,25.8,14.6,22.4,17.7,11.4,87,73,48,29.92,29.80,12,0,12,0.02
2013-2-23,47.6,31.7,18.3,28.0,19.2,11.3,92,63,30,29.84,29.55,16,2,17,0.00
2013-2-24,29.4,26.7,19.3,27.3,24.7,17.3,92,92,92,30.10,29.68,22,2,23,0.01
2013-2-25,42.1,25.1,10.3,24.1,14.9,7.7,92,68,31,30.08,29.80,11,0,12,0.00
2013-2-26,36.6,26.4,19.5,30.1,22.0,12.5,92,83,71,30.12,29.75,15,2,18,0.00
2013-2-27,38.4,28.5,17.6,21.1,15.6,10.8,86,61,34,30.23,30.12,16,0,16,0.00
2013-2-28,43.2,30.0,14.6,17.5,11.7,7.1,74,50,26,30.25,30.14,17,1,17,0.01
2013-3-1,49.2,37.0,24.9,26.4,20.6,14.8,78,53,29,30.33,30.22,11,0,11,0.04
2013-3-2,59.4,43.0,28.9,29.4,24.6,19.8,80,53,22,30.31,30.05,13,0,15,0.02
2013-3-3,62.3,48.8,37.2,30.2,23.5,15.3,72,41,17,30.05,29.65,18,1,19,0.00
2013-3-4,44.4,31.3,19.2,29.1,24.3,14.9,92,76,44,30.23,29.68,12,1,13,0.02
2013-3-5,40.7,27.3,13.3,24.5,18.1,9.0,85,70,46,30.25,30.13,10,0,11,4.90
2013-3-6,58.0,36.8,20.1,33.6,23.3,11.2,92,65,16,30.13,29.83,15,0,15,17.96
2013-3-7,63.5,44.7,28.9,28.4,25.0,14.8,85,53,15,29.98,29.84,19,1,21,17.96
2013-3-8,47.7,39.2,31.5,35.6,31.7,27.1,88,75,55,29.98,29.67,10,0,10,0.00
2013-3-9,71.7,30.3,5.1,63.7,24.0,-57.9,92,79,1,30.08,0.00,21,2,22,88.51
2013-3-10,140.6,35.1,24.0,26.6,23.7,-29.6,85,64,18,30.23,0.00,16,0,16,0.00
2013-3-11,52.0,37.8,28.7,32.9,25.3,18.7,92,66,28,30.17,29.90,26,2,30,0.00
2013-3-12,44.1,33.8,27.0,31.8,29.0,24.8,92,83,58,30.32,30.15,10,0,10,0.02
2013-3-13,74.3,37.9,-1.4,54.1,26.4,-32.6,91,69,2,30.96,26.15,16,1,16,0.92
2013-3-14,94.3,56.0,0.1,80.2,20.2,-42.2,92,33,1,30.56,26.87,14,1,17,11.58
2013-3-21,71.6,41.4,6.4,41.3,13.1,-16.5,34,31,18,29.81,29.48,16,3,18,114.03
2013-3-22,51.2,36.2,28.7,30.5,22.0,-19.6,92,60,26,33.67,29.48,30,2,31,0.00
2013-3-23,28.7,21.3,16.2,26.7,18.6,13.2,92,89,83,30.18,29.88,22,2,22,0.02
2013-3-24,32.5,20.6,7.9,20.2,13.7,4.7,89,76,53,30.20,30.06,11,0,12,0.01
2013-3-25,42.0,27.2,15.5,18.3,14.1,8.0,89,61,28,30.25,30.17,9,0,10,0.01
2013-3-26,56.6,35.3,19.1,32.2,22.2,14.1,85,63,23,30.18,29.90,12,1,12,0.96
2013-3-27,57.4,41.8,28.7,37.0,31.4,25.9,90,70,37,30.12,29.99,13,1,32,0.64
2013-3-28,65.5,43.9,32.5,40.3,32.6,25.8,92,71,24,30.14,30.05,12,0,12,10.88
2013-3-31,49.4,49.1,48.6,23.7,23.6,23.5,37,36,36,30.15,30.14,8,1,8,0.02
2013-4-1,56.2,44.4,35.7,36.2,31.3,23.6,85,62,38,30.18,29.99,22,2,22,0.01
2013-4-2,41.8,39.0,37.3,37.1,35.8,34.4,92,88,78,30.15,30.07,9,0,9,0.00
2013-4-3,62.4,46.8,37.4,43.3,33.1,21.4,92,66,22,30.17,30.07,13,0,13,0.00
2013-4-4,70.3,53.0,36.3,34.0,27.7,18.2,82,44,15,30.20,30.03,11,1,12,0.01
2013-4-5,73.4,58.6,47.4,33.0,24.0,11.8,47,29,10,30.03,29.71,28,1,31,0.00
2013-4-6,68.8,55.4,43.1,32.2,23.4,15.4,47,30,13,29.98,29.87,13,1,15,0.00
2013-4-7,65.5,54.3,42.5,37.7,28.0,17.9,80,40,17,29.89,29.71,21,2,24,0.00
2013-4-8,66.8,46.9,27.0,37.1,28.9,19.2,92,55,17,29.85,29.38,29,3,30,0.00
2013-4-9,27.1,18.7,12.5,25.0,15.4,9.4,92,87,77,30.20,29.84,23,4,23,0.00
2013-4-10,32.0,21.8,10.6,19.3,13.9,7.7,89,73,53,30.16,29.85,7,1,13,0.00
2013-4-11,55.6,38.6,23.0,38.2,27.4,18.7,88,67,34,29.90,29.70,19,1,22,0.00
2013-4-14,74.5,45.5,-0.7,66.5,12.9,-46.5,84,29,2,34.15,0.00,24,2,32,13.54
2013-4-15,139.9,38.5,4.2,27.9,12.2,-57.2,64,36,1,34.15,0.00,15,2,19,5.68
2013-4-18,128.9,35.8,9.2,99.9,15.0,-42.0,68,43,3,30.16,29.48,15,0,16,13.20
2013-4-19,142.1,30.3,1.2,57.7,14.3,-58.0,68,56,15,34.16,0.00,16,1,16,0.00
2013-4-26,72.9,60.0,10.0,61.1,17.9,-15.5,66,20,11,30.27,30.19,14,1,14,13.53
2013-4-27,142.2,56.8,-1.3,36.3,17.7,-53.3,66,29,4,30.99,30.07,15,1,16,0.00
2013-4-28,79.4,63.7,44.5,29.3,20.1,3.0,46,23,6,30.10,29.87,18,1,19,0.00
2013-4-29,99.6,69.1,-1.0,92.7,21.2,-51.8,81,21,1,30.11,29.48,16,2,17,13.38
2013-4-30,139.6,57.3,2.6,51.9,18.8,-27.2,69,23,4,30.07,0.81,16,0,16,0.00
2013-5-1,27.1,26.7,26.5,25.0,24.7,24.4,92,92,92,30.64,30.63,0,0,0,0.00
2013-5-2,49.3,37.2,24.7,29.0,24.0,17.8,92,63,31,30.71,30.44,11,0,11,0.00
2013-5-3,94.9,47.3,30.2,30.8,23.9,12.5,85,46,20,30.44,30.11,64,1,64,0.00
2013-5-4,62.1,49.3,36.4,34.3,28.6,23.2,80,48,26,30.26,30.12,14,1,15,0.00
2013-5-5,58.4,48.9,38.2,36.3,27.2,23.2,72,45,27,30.26,30.10,11,0,12,0.00
2013-5-6,67.0,54.1,41.7,38.7,32.5,27.1,65,46,27,30.14,29.95,9,0,10,0.00
2013-5-7,81.8,57.5,46.8,49.1,38.7,-7.8,89,55,20,30.07,24.71,64,1,64,0.28
2013-5-8,60.9,49.7,44.8,51.2,45.4,42.1,92,86,52,30.14,24.73,21,1,21,0.31
2013-5-9,56.9,49.3,44.5,49.7,45.0,40.8,92,85,66,30.25,30.12,17,1,18,0.56
2013-5-10,67.0,51.0,38.8,45.5,39.0,31.8,92,68,27,30.36,30.22,17,1,17,23.00
2013-5-11,71.0,58.2,44.9,44.8,39.4,29.7,84,53,23,30.47,30.28,19,1,20,27.60
2013-5-12,79.9,65.2,48.7,42.5,34.2,23.0,76,38,13,30.29,30.17,13,0,13,27.60
2013-5-13,85.8,70.4,53.5,40.8,34.5,23.2,57,30,11,30.24,30.10,13,1,14,23.00
2013-5-14,86.8,68.8,11.8,52.9,35.8,-10.4,60,32,8,30.10,29.48,13,1,15,122.44
2013-5-15,142.0,65.3,0.1,56.8,39.7,-45.2,83,44,5,30.23,29.48,16,1,23,0.16
2013-5-16,83.0,67.8,51.8,53.3,41.8,24.3,85,47,12,30.00,29.82,15,1,16,3.84
2013-5-17,88.7,72.0,53.7,47.2,27.8,-15.6,69,29,2,29.95,29.76,15,1,16,3.84
2013-5-18,79.5,65.8,54.9,39.3,31.3,17.2,49,29,10,29.96,29.76,16,0,16,3.84
2013-5-19,71.9,61.1,53.3,40.9,32.8,18.5,63,38,14,29.90,29.77,18,1,21,3.84
2013-5-20,67.3,55.3,49.9,51.2,43.9,36.6,89,67,36,30.07,29.87,15,1,17,3.84
2013-5-21,72.6,58.5,44.2,44.5,36.0,26.1,90,50,19,30.09,29.90,15,1,17,3.84
2013-5-22,97.7,64.6,-1.4,65.0,35.8,-52.2,92,42,2,30.19,29.48,16,1,16,122.61
2013-5-23,142.2,54.5,2.7,58.1,37.7,-52.8,82,66,6,30.16,29.48,14,1,14,0.00
2013-5-28,72.8,67.7,0.4,59.7,35.3,-16.4,67,31,7,29.82,29.59,24,0,84,3.54
2013-5-29,136.8,59.3,-1.3,55.4,36.0,-50.3,89,45,7,30.23,3.99,89,2,115,13.47
2013-5-30,136.6,54.6,-0.5,99.9,28.2,-25.4,64,38,36,30.16,29.48,15,1,16,0.00
2013-5-31,60.0,60.0,60.0,16.0,16.0,15.8,18,18,18,30.07,30.07,0,0,0,0.00
2013-6-1,76.3,52.0,8.1,60.5,34.9,-39.8,84,55,2,30.87,29.48,15,0,17,4.50
2013-6-5,71.7,56.8,13.1,65.2,49.0,-5.3,92,76,8,30.22,29.48,10,0,14,123.70
2013-6-6,141.8,48.8,4.2,90.7,36.9,-39.8,92,74,7,30.22,0.00,15,1,15,0.00
2013-6-7,135.4,72.8,-1.3,96.7,37.3,-37.0,71,30,8,29.99,29.48,16,0,17,13.75
2013-6-8,142.4,67.8,0.7,52.8,31.1,-52.8,67,30,1,30.18,29.48,15,1,16,5.73
2013-6-9,95.5,73.3,51.5,49.3,35.7,-2.9,81,35,6,30.12,29.48,13,0,13,0.00
2013-6-10,97.8,80.2,62.8,41.5,28.4,5.4,37,19,4,30.02,29.91,16,1,20,0.00
2013-6-11,99.8,82.1,61.9,43.2,19.7,-24.6,50,17,1,30.05,29.84,20,2,22,0.00
2013-6-12,93.5,77.9,60.5,44.2,26.0,8.3,39,18,4,30.23,30.04,21,1,25,0.00
2013-6-13,82.8,68.6,59.9,57.5,54.1,44.6,85,63,35,30.20,30.02,16,2,17,0.00
2013-6-14,72.6,72.6,72.6,40.0,40.0,40.0,31,31,31,30.02,30.02,0,0,0,0.00
2013-6-16,85.0,71.0,15.1,54.7,39.3,-34.4,66,33,9,30.19,29.48,16,0,16,13.77
2013-6-17,139.6,57.6,3.1,60.8,38.7,-34.4,91,54,3,36.54,29.48,16,0,16,8.02
2013-6-18,120.9,77.7,-1.4,87.0,38.7,-46.9,86,28,1,30.23,29.48,21,2,22,11.11
2013-6-19,73.7,72.4,71.3,49.6,47.7,44.0,44,42,38,29.83,29.80,0,0,0,1.91
2013-6-20,93.3,75.5,56.8,54.1,29.9,-0.1,68,26,3,30.01,29.82,12,1,13,0.00
2013-6-21,95.3,77.0,61.4,52.1,31.6,-21.0,64,29,1,30.00,29.84,16,0,16,0.00
2013-6-22,86.8,73.1,59.8,52.3,44.8,37.8,71,39,19,30.04,29.83,23,1,26,0.01
2013-6-23,87.3,69.3,57.2,59.7,48.2,31.0,85,53,14,30.12,29.85,27,1,27,0.11
2013-6-24,89.5,72.7,59.3,52.7,40.8,11.5,68,40,6,30.00,29.81,21,1,29,0.00
2013-6-25,93.5,76.1,59.6,43.0,32.6,15.8,47,25,6,30.10,29.87,12,0,12,0.00
2013-6-26,98.5,80.3,61.5,44.4,31.6,7.2,49,23,4,30.18,30.10,13,0,13,0.00
2013-6-27,98.3,82.3,64.2,49.8,34.4,11.9,57,24,4,30.34,30.17,12,0,13,0.00
2013-6-28,90.5,76.7,66.7,51.5,46.5,40.5,57,35,21,30.35,30.28,13,0,13,0.00
2013-6-29,72.4,72.4,72.4,50.1,50.1,50.1,45,45,45,30.33,30.33,0,0,0,0.00
2013-7-3,90.1,73.3,57.3,54.7,46.0,30.9,84,44,13,30.19,29.97,14,0,16,0.00
2013-7-4,91.3,75.7,61.4,53.9,44.3,27.5,67,38,11,30.09,29.99,18,0,22,0.00
2013-7-5,90.7,74.6,63.7,58.5,49.7,40.5,74,45,18,30.01,29.91,18,1,23,0.00
2013-7-6,69.7,68.6,68.3,55.0,53.4,51.1,61,58,52,29.99,29.93,8,0,8,0.00
2013-7-7,68.8,68.8,68.8,52.4,52.4,52.4,56,56,56,30.07,30.07,0,0,0,0.00
2013-7-8,99.7,82.5,1.7,85.3,40.4,-34.5,81,27,7,30.22,29.48,16,1,19,9.37
2013-7-9,96.3,79.7,64.5,54.6,42.3,20.1,61,32,8,30.28,30.20,15,0,17,0.00
2013-7-10,91.9,77.0,63.7,58.4,52.6,45.7,80,45,22,30.31,30.12,17,1,18,0.00
2013-7-11,100.0,80.6,64.5,64.8,50.4,23.3,78,42,8,30.19,29.95,21,1,21,0.12
2013-7-12,94.2,76.6,66.9,66.2,55.5,42.2,88,53,17,30.17,30.02,14,1,17,0.00
2013-7-13,91.2,72.8,65.1,66.3,60.9,45.6,92,72,23,30.27,30.10,15,1,16,1.25
2013-7-14,81.8,70.3,60.1,65.2,60.5,54.6,92,74,41,30.33,30.18,16,1,17,0.00
2013-7-15,80.8,70.6,64.4,67.8,61.0,46.9,92,74,42,30.29,30.19,15,1,16,0.28
2013-7-16,86.2,72.0,58.2,55.8,50.5,44.8,81,50,25,30.30,30.20,19,2,19,0.00
2013-7-17,67.0,67.0,67.0,56.8,56.8,56.8,70,70,70,30.30,30.30,8,8,10,0.00
2013-7-18,96.5,74.1,3.8,67.8,45.9,-37.8,69,39,1,30.83,0.00,22,4,22,127.43
2013-7-19,138.9,67.4,-1.1,59.6,50.7,-40.7,73,58,4,30.98,30.24,16,0,16,2.26
2013-7-20,92.7,74.9,62.1,59.7,53.5,35.5,86,54,14,30.18,29.98,21,1,24,0.00
2013-7-21,92.3,76.0,62.0,59.4,53.5,41.2,81,50,18,30.08,29.97,12,0,13,0.00
2013-7-22,95.0,79.4,62.5,58.6,45.1,24.2,73,36,9,30.09,29.98,9,0,10,0.00
2013-7-23,91.2,77.7,63.3,57.4,44.7,30.1,60,34,12,30.23,30.04,13,0,14,0.00
2013-7-24,85.0,74.3,65.8,62.3,56.0,46.8,80,55,29,30.25,30.13,25,1,26,0.00
2013-7-25,80.6,67.2,61.2,64.0,57.4,47.4,85,73,32,30.36,30.14,37,1,37,0.02
2013-7-26,87.8,72.0,58.6,58.1,50.3,32.2,86,53,15,30.38,30.21,11,0,12,0.00
2013-7-27,81.7,68.6,57.6,63.5,54.9,51.2,92,64,36,30.27,30.11,10,1,12,0.00
2013-7-28,76.4,65.4,60.8,64.1,60.8,58.4,92,86,60,30.18,30.01,9,0,10,0.00
2013-7-29,75.3,64.7,58.3,64.9,58.9,53.4,92,83,53,30.27,30.02,10,0,11,0.00
2013-7-30,89.3,71.9,58.1,58.3,51.3,39.2,91,55,18,30.33,30.23,12,0,12,0.00
2013-7-31,93.6,75.1,62.1,58.6,50.1,29.3,81,48,11,30.41,30.21,17,0,19,0.00
2013-8-1,90.7,74.8,64.2,60.2,52.3,25.8,83,51,10,30.32,30.05,11,0,15,0.00
2013-8-2,93.2,82.4,71.5,57.1,44.8,32.8,60,29,13,30.15,30.04,17,1,19,0.00
2013-8-3,91.2,73.3,62.2,61.4,54.4,41.4,90,57,19,30.38,30.13,19,1,19,0.06
2013-8-4,88.9,71.1,58.4,61.2,54.5,35.6,91,62,16,30.31,30.17,8,0,8,0.00
2013-8-5,87.3,73.3,60.6,59.9,52.1,42.9,81,51,24,30.20,30.11,16,1,18,0.00
2013-8-6,89.2,73.2,61.3,58.8,47.1,27.2,81,45,12,30.17,30.06,22,1,23,0.00
2013-8-7,76.5,68.4,62.7,60.5,54.7,46.8,84,62,44,30.22,30.09,16,0,16,0.00
2013-8-8,78.8,65.1,58.7,60.9,56.9,50.8,92,77,41,30.27,30.11,19,1,22,0.51
2013-8-9,81.3,65.2,54.0,59.6,52.2,40.8,90,67,24,30.29,30.22,13,0,16,0.02
2013-8-10,88.3,68.1,52.9,57.5,48.8,31.0,90,58,14,30.31,30.15,28,1,29,0.07
2013-8-11,83.5,70.3,60.0,57.4,51.3,41.7,83,54,24,30.30,30.21,9,0,11,0.14
2013-8-12,81.8,67.9,56.7,60.4,54.3,48.1,92,65,34,30.37,30.21,15,1,16,0.00
2013-8-13,81.7,66.8,56.2,59.5,52.9,43.4,92,65,28,30.35,30.23,16,1,18,0.00
2013-8-14,63.2,63.2,63.2,51.7,51.7,51.7,66,66,66,30.28,30.28,0,0,0,0.00
2013-8-19,127.6,84.4,-0.7,94.2,31.7,-40.9,88,18,6,30.18,29.48,16,1,16,13.06
2013-8-20,142.3,70.4,-0.8,44.3,34.5,-37.3,68,29,15,30.21,29.48,16,1,16,3.92
2013-8-21,68.0,67.8,67.7,55.7,55.6,55.5,65,65,65,30.22,30.22,0,0,0,0.00
2013-8-22,85.0,71.3,63.6,64.0,58.8,52.1,85,67,36,30.33,24.94,19,1,19,0.09
2013-8-23,90.2,72.4,62.7,59.9,54.1,45.4,84,57,23,30.30,30.04,16,0,18,2.16
2013-8-24,92.0,71.5,59.4,62.3,53.9,38.8,83,58,23,30.20,30.09,18,0,21,0.03
2013-8-25,89.6,74.3,61.4,59.6,53.7,41.2,87,54,18,30.24,30.15,13,0,14,2.88
2013-8-26,91.5,75.8,62.0,61.2,54.4,45.9,89,53,21,30.25,30.16,16,1,16,2.28
2013-8-27,97.6,77.4,64.4,59.4,54.5,0.0,80,50,19,30.25,24.94,16,0,129,0.00
2013-8-29,92.2,81.3,75.7,51.3,45.3,33.3,42,30,13,30.28,30.21,19,1,19,0.00
2013-8-30,88.9,73.7,67.0,64.9,55.7,0.0,80,55,24,30.33,24.21,64,0,127,0.08
2013-8-31,78.4,69.8,62.4,61.6,55.3,48.1,83,61,37,30.20,30.14,7,0,7,0.88
2013-9-1,81.4,71.0,64.4,59.8,56.2,11.3,78,60,42,30.32,29.48,11,0,11,0.00
2013-9-2,89.7,73.6,58.9,59.0,53.3,44.6,88,54,23,30.23,30.10,10,0,10,0.00
2013-9-3,94.9,77.8,18.3,59.5,51.1,10.3,75,44,15,30.22,30.13,6,0,8,0.01
2013-9-8,131.9,81.5,23.5,99.9,41.9,-27.2,82,27,7,30.19,29.48,16,1,16,12.66
2013-9-9,141.0,65.6,0.8,99.9,45.0,-8.4,67,54,43,30.22,29.48,16,0,16,0.00
2013-9-10,62.3,61.9,61.4,60.0,59.6,59.1,92,92,92,30.30,30.27,5,0,6,0.00
2013-9-11,69.0,63.3,61.0,64.1,60.7,58.6,92,91,81,30.30,30.20,10,0,10,0.00
2013-9-12,65.0,61.3,59.4,62.5,59.0,57.0,92,92,92,30.36,30.27,16,0,17,0.00
2013-9-13,77.6,65.3,58.5,65.9,60.0,56.2,92,84,56,30.27,29.97,15,0,17,0.00
2013-9-14,98.5,63.0,24.1,72.1,56.3,-13.7,92,83,1,30.21,29.48,15,0,16,12.71
2013-9-15,140.5,59.0,7.1,71.8,49.7,-6.5,92,80,53,30.21,0.00,15,0,15,10.00
2013-9-21,82.9,73.9,61.2,45.9,38.0,29.9,57,30,15,29.94,29.87,11,0,12,0.00
2013-9-22,73.8,58.8,53.2,51.4,47.6,45.7,80,67,39,29.88,29.78,12,0,12,0.00
2013-9-23,57.7,57.7,57.7,55.4,55.4,55.4,92,92,92,29.68,29.68,0,0,0,0.00
2013-9-25,69.9,66.4,62.7,33.2,30.3,26.8,33,26,20,29.61,29.57,8,0,8,11.93
2013-9-26,76.5,58.8,47.7,49.0,43.8,-9.5,85,60,33,29.85,24.53,80,0,127,16.22
2013-9-27,52.4,50.7,49.7,48.0,47.4,46.8,90,89,85,29.79,29.78,0,0,0,0.00
2013-9-28,46.1,46.0,45.8,41.4,41.3,41.1,84,84,84,30.18,30.17,0,0,0,0.13
2013-9-29,75.0,56.3,40.9,48.3,36.7,21.9,85,55,14,30.17,29.95,8,0,8,0.00
2013-9-30,80.0,63.6,51.5,49.6,40.9,30.0,77,49,16,29.99,29.84,9,0,10,0.00
2013-10-1,56.1,53.0,50.3,48.1,45.5,44.3,82,76,65,30.02,29.97,6,0,6,0.00
2013-10-2,75.5,66.7,-1.3,63.6,36.2,-47.4,92,36,8,30.19,24.19,81,1,136,21.12
2013-10-3,127.3,54.1,5.6,99.9,43.4,-38.7,92,71,1,30.13,28.53,15,2,15,21.12
2013-10-4,49.7,39.0,31.6,47.4,34.9,27.1,92,86,61,30.23,29.79,19,2,19,2.47
2013-10-5,57.7,42.3,28.8,32.8,24.2,11.8,92,59,16,30.24,29.53,20,1,64,8.23
2013-10-6,72.7,54.5,24.1,63.0,36.8,4.3,77,55,25,30.30,30.24,9,0,13,6.19
2013-10-7,90.0,41.9,-1.1,65.4,30.6,-43.8,91,68,1,30.84,29.48,15,0,16,9.15
2013-10-10,49.7,48.1,46.5,45.0,44.6,43.6,92,88,80,29.61,29.56,0,0,0,3.86
2013-10-11,72.7,50.4,24.1,44.2,36.2,5.5,92,61,33,30.09,29.48,15,1,16,0.02
2013-10-12,58.7,48.2,40.2,45.4,42.0,19.2,92,80,49,30.23,29.06,13,1,14,1.95
2013-10-13,60.2,48.2,36.7,48.1,41.5,34.6,92,79,56,30.19,29.91,10,0,11,0.08
2013-10-14,53.7,46.8,42.0,48.0,41.5,36.5,92,83,62,30.13,29.84,24,1,25,0.05
2013-10-15,138.6,40.8,24.1,71.3,29.9,-11.0,92,65,19,30.74,24.27,16,0,128,11.28
2013-10-16,75.6,32.0,24.1,47.8,26.7,-10.4,92,83,21,30.18,29.48,14,0,16,10.00
2013-10-17,88.7,41.3,33.8,34.4,32.3,-40.2,87,71,53,30.16,24.68,12,0,127,6.15
2013-10-18,44.1,37.5,32.4,36.2,31.8,29.7,92,81,61,30.22,30.05,13,1,15,0.00
2013-10-19,62.1,44.2,-0.4,30.9,25.4,-31.2,90,55,18,30.15,24.23,64,1,127,4.95
2013-10-20,47.8,41.2,35.3,38.4,35.1,30.5,92,79,63,30.17,29.91,14,0,14,0.00
2013-10-21,55.1,41.1,29.9,37.9,31.3,26.6,92,72,35,30.23,30.12,10,0,11,0.00
2013-10-22,61.2,45.8,0.0,38.2,32.4,-35.5,89,63,16,30.27,24.20,32,0,127,4.04
2013-10-23,144.3,48.2,-1.3,99.9,33.9,-11.0,84,62,30,30.26,24.91,16,0,127,4.48
2013-10-24,44.8,38.3,33.1,39.7,35.4,-7.9,92,89,82,30.33,24.22,9,0,9,2.07
2013-10-25,44.2,35.9,33.5,39.4,33.7,31.4,92,92,84,30.28,30.23,0,0,0,0.00
2013-10-26,74.9,52.3,41.9,60.3,38.5,31.3,80,60,41,30.41,30.18,7,0,16,8.12
2013-10-27,93.3,45.1,24.1,88.1,29.3,-26.6,91,62,8,30.18,29.48,14,0,15,9.51
2013-10-28,137.1,36.6,-0.5,71.8,34.1,-15.7,92,91,15,30.17,0.00,64,0,129,279.25
2013-10-29,98.5,34.4,-0.5,32.5,22.8,-9.1,92,70,28,30.06,4.10,14,1,15,0.00
2013-10-30,89.1,43.2,-1.2,66.2,35.8,-40.7,92,77,4,30.23,24.55,16,1,127,12.80
2013-10-31,52.4,41.2,28.7,32.4,24.9,-18.6,92,58,27,29.93,24.55,24,2,64,4.00
2013-11-1,126.9,42.1,14.5,37.3,27.3,-25.5,92,57,14,30.25,24.19,32,0,127,6.39
2013-11-2,60.3,41.9,26.9,33.8,26.4,19.6,88,59,25,30.24,24.92,9,0,127,0.79
2013-11-3,82.3,48.7,36.6,47.4,21.6,-17.3,73,40,13,29.89,24.20,19,1,133,4.10
2013-11-4,141.6,37.3,0.2,83.3,26.6,-56.3,86,69,17,30.02,24.19,97,2,134,7.14
2013-11-5,138.8,35.5,5.5,51.3,10.2,-24.4,68,35,15,30.22,21.09,14,0,16,71.42
2013-11-6,45.0,26.2,18.3,30.3,11.0,-28.0,66,52,1,30.16,29.48,3,0,14,71.42
2013-11-7,135.3,35.3,0.1,30.1,20.1,-48.1,92,56,23,34.80,24.19,16,0,127,26.32
2013-11-8,62.5,45.2,32.4,27.9,23.6,13.6,76,47,15,30.05,29.84,11,0,12,0.00
2013-11-9,75.3,44.4,15.8,40.6,28.4,-27.7,92,57,20,30.30,24.23,16,0,127,5.20
2013-11-10,62.7,44.2,30.7,32.4,25.8,13.6,88,55,15,30.29,30.18,9,0,9,0.00
2013-11-11,79.1,41.1,-0.5,65.1,25.0,-43.2,92,59,2,30.95,0.00,17,2,82,13.70
2013-11-12,110.5,49.4,0.9,86.9,28.2,-7.8,90,46,18,30.95,30.24,15,0,16,21.23
2013-11-13,130.1,48.3,22.4,99.9,15.8,-13.7,79,30,8,128.85,29.48,16,0,16,26.74
2013-11-14,141.4,43.2,-0.6,99.9,21.0,-52.3,66,41,8,30.23,29.48,16,0,16,8.80
2013-11-15,72.9,51.5,15.5,70.1,18.1,-26.6,92,28,9,30.23,1.37,16,0,16,18.01
2013-11-16,142.2,38.0,-0.2,33.9,21.2,-14.4,60,51,24,30.17,28.54,14,0,14,0.60
2013-11-17,53.2,42.3,33.3,29.2,20.1,13.6,73,43,21,30.09,29.56,22,1,22,0.00
2013-11-18,60.3,42.0,27.5,22.3,16.4,1.6,74,42,10,30.17,30.03,9,0,10,0.00
2013-11-19,127.8,47.3,20.4,81.8,20.9,-15.0,92,37,10,30.20,29.48,15,1,16,19.02
2013-11-20,126.8,45.7,12.4,99.9,23.9,-24.0,65,45,5,29.89,24.58,32,0,143,2.82
2013-11-21,132.0,20.3,-0.8,99.9,15.3,-51.1,92,81,3,30.95,2.22,15,2,16,21.65
2013-11-22,74.3,26.6,18.9,65.2,19.3,-22.7,80,74,13,30.88,30.24,15,0,15,1.73
2013-11-23,74.4,28.6,4.4,19.0,10.6,-58.2,70,49,1,30.95,0.00,15,0,15,0.01
2013-11-25,80.3,34.7,2.0,65.7,25.3,-25.9,89,70,25,30.99,30.14,13,0,16,7.96
2013-11-26,45.9,34.9,26.6,30.2,24.3,20.1,90,68,36,30.42,30.26,10,0,10,0.00
2013-11-27,58.9,33.9,28.4,25.1,22.2,-52.0,78,66,17,30.26,30.04,12,0,127,0.30
2013-11-28,45.5,34.5,28.4,27.8,26.1,23.7,85,72,46,30.20,30.15,9,0,9,0.00
2013-11-29,51.7,31.6,27.1,27.5,24.7,21.3,87,78,31,30.16,30.10,7,0,7,0.00
2013-11-30,124.9,40.9,0.3,91.8,17.9,-14.8,90,44,17,30.21,3.63,16,0,16,12.86
2013-12-1,53.6,50.0,43.9,24.0,20.4,17.2,39,31,24,30.07,29.88,30,1,34,0.00
2013-12-2,57.8,50.2,38.5,24.1,20.2,16.7,56,32,21,29.90,29.58,26,2,27,0.00
2013-12-3,129.5,34.0,2.5,69.4,18.0,-47.8,88,55,3,30.21,29.45,16,3,127,18.80
2013-12-4,138.2,10.9,1.0,99.9,5.7,-55.1,90,80,4,30.02,29.48,15,1,58,13.50
2013-12-5,125.4,5.8,-1.8,99.9,0.5,-25.6,92,76,26,30.18,29.48,14,0,16,12.90
2013-12-6,92.2,5.6,-0.4,69.7,0.0,-56.6,92,77,1,30.22,29.48,16,0,16,13.70
2013-12-7,108.6,6.7,-4.2,69.8,0.4,-59.3,91,76,1,30.22,29.48,16,1,16,19.01
2013-12-8,88.2,14.5,-1.3,81.9,7.7,-56.7,91,75,1,30.23,29.48,16,0,16,7.52
2013-12-9,90.4,15.6,4.0,9.5,3.8,-0.7,85,63,31,30.10,29.66,14,0,16,0.00
2013-12-10,44.7,27.9,11.2,18.0,11.0,0.4,71,51,27,30.25,29.89,21,1,23,0.00
2013-12-11,134.5,24.1,3.1,94.4,16.1,-53.3,91,72,2,30.95,29.86,16,0,16,13.64
2013-12-12,89.7,31.6,0.5,69.1,16.6,-46.9,91,59,4,30.86,29.48,14,0,16,15.15
2013-12-13,110.1,30.6,3.9,66.8,16.7,-36.9,91,60,5,30.19,29.48,18,1,21,6.67
2013-12-14,74.4,31.0,0.7,22.1,18.4,-8.0,85,62,35,30.30,29.48,14,0,15,22.08
2013-12-15,129.9,38.9,-1.0,93.4,16.4,-27.1,92,47,18,30.23,29.48,16,1,16,20.18
2013-12-16,103.4,50.3,3.0,67.3,14.1,-40.2,90,28,1,30.28,29.48,14,2,23,10.37
2013-12-17,132.8,41.8,-1.4,68.6,16.8,-27.3,90,40,14,30.36,29.48,16,0,16,20.10
2013-12-18,99.6,52.2,-0.6,75.8,13.3,-40.1,90,24,1,30.23,2.25,15,1,16,0.63
2013-12-19,51.9,35.8,18.7,25.2,18.7,0.0,90,55,44,29.87,2.25,16,3,18,0.00
2013-12-20,26.4,22.6,18.8,22.8,19.7,16.1,92,89,85,29.87,29.61,7,0,7,0.00
2013-12-21,30.2,23.5,15.5,25.9,20.5,12.8,92,88,80,29.89,29.51,10,0,11,0.00
2013-12-22,39.2,28.8,18.7,25.8,18.2,12.1,92,69,33,30.23,29.88,20,2,21,0.00
2013-12-23,43.9,29.6,20.1,27.3,22.2,17.3,91,76,41,30.28,30.10,10,0,11,0.00
2013-12-24,52.7,37.4,24.9,27.4,22.4,16.0,77,56,28,30.30,29.99,25,2,30,0.00
2013-12-25,24.9,23.2,21.7,16.4,15.2,13.6,72,71,68,30.31,30.27,4,0,4,0.00
2013-12-26,129.1,33.9,24.0,49.8,13.2,-46.1,69,44,8,30.97,29.48,15,0,16,461.72
2013-12-27,126.7,44.8,0.5,70.0,19.1,-19.4,88,37,18,30.51,29.48,15,0,16,20.13
2013-12-28,56.6,36.0,22.8,29.1,21.9,17.5,92,60,24,30.25,29.85,21,2,21,0.00
2013-12-29,34.7,25.9,16.9,22.3,17.4,13.1,89,72,43,30.25,30.00,10,0,10,0.00
2013-12-30,45.9,38.6,29.7,18.8,15.4,11.1,62,41,24,30.22,30.12,12,1,13,0.00
2013-12-31,71.9,30.4,28.6,58.2,18.9,10.3,64,62,43,30.12,30.02,6,0,12,0.00
2014-1-1,36.6,32.0,23.0,32.8,27.1,20.1,92,82,61,30.33,29.89,12,1,16,0.00
2014-1-2,45.4,29.5,18.8,26.8,21.4,15.6,89,74,32,30.27,30.01,8,0,9,0.00